This is the latest recevied weather packets stored in our database for station/object N1ORT. If no packets are shown the sender has not sent any weather packets the latest 10 day(s).
| Time | Temp. | Humidity | Pressure | Rain* | Wind** | Luminosity | Snow |
|---|---|---|---|---|---|---|---|
| 1788549206 | 27.78° C | 55% | 1006.8 hPa | 0 mm | - | 220 W/m² | - |
| 1788548902 | 28.89° C | 51% | 1007.1 hPa | 0 mm | - | 308 W/m² | - |
| 1788548598 | 27.22° C | 53% | 1007.2 hPa | 0 mm | - | 796 W/m² | - |
| 1788548294 | 27.78° C | 53% | 1007.2 hPa | 0 mm | - | 585 W/m² | - |
| 1788547990 | 28.89° C | 51% | 1007.1 hPa | 0 mm | - | 666 W/m² | - |
| 1788547688 | 28.33° C | 50% | 1007.2 hPa | 0 mm | - | 650 W/m² | - |
| 1788547384 | 28.33° C | 52% | 1007.1 hPa | 0 mm | - | 660 W/m² | - |
| 1788547079 | 28.33° C | 54% | 1007.3 hPa | 0 mm | - | 671 W/m² | - |
| 1788546774 | 28.89° C | 51% | 1007.3 hPa | 0 mm | - | 682 W/m² | - |
| 1788546469 | 28.33° C | 59% | 1007.1 hPa | 0 mm | - | 717 W/m² | - |
| 1788546165 | 27.78° C | 57% | 1007.3 hPa | 0 mm | - | 708 W/m² | - |
| 1788545860 | 28.33° C | 55% | 1007.1 hPa | 0 mm | - | 721 W/m² | - |
| 1788545559 | 28.89° C | 56% | 1007.3 hPa | 0 mm | - | 722 W/m² | - |
| 1788545255 | 28.33° C | 56% | 1006.9 hPa | 0 mm | - | 730 W/m² | - |
| 1788544950 | 27.78° C | 57% | 1007.2 hPa | 0 mm | - | 764 W/m² | - |
| 1788544649 | 28.33° C | 57% | 1007.2 hPa | 0 mm | - | 798 W/m² | - |
| 1788544347 | 27.78° C | 59% | 1007.2 hPa | 0 mm | - | 767 W/m² | - |
| 1788544043 | 27.78° C | 57% | 1007.2 hPa | 0 mm | - | 783 W/m² | - |
| 1788543739 | 26.67° C | 63% | 1007.3 hPa | 0 mm | - | 800 W/m² | - |
| 1788543434 | 26.67° C | 65% | 1007.3 hPa | 0 mm | - | 113 W/m² | - |
| 1788543129 | 27.78° C | 64% | 1007.5 hPa | 0 mm | - | 177 W/m² | - |
| 1788542826 | 27.22° C | 65% | 1007.2 hPa | 0 mm | - | 811 W/m² | - |
| 1788542525 | 27.22° C | 68% | 1007.5 hPa | 0 mm | - | 811 W/m² | - |
| 1788542220 | 25.56° C | 70% | 1007.5 hPa | 0 mm | - | 830 W/m² | - |
| 1788541915 | 26.11° C | 68% | 1007.6 hPa | 0 mm | - | 88 W/m² | - |
* Rain latest hour (hover to see other rain measurements)
** Current wind speed in m/s (hover to see current wind gust speed)